軌道要素
Epoch 2015 Sept. 15.0 TT = JDT 2457280.5
T 2015 Sept. 30.89321 TT MPCW
q 2.6783616 (2000.0) P Q
n 0.04975280 Peri. 117.62721 +0.60085685 -0.77800575
a 7.3213481 Node 294.24711 +0.64398041 +0.60714429
e 0.6341710 Incl. 11.61133 +0.47356128 +0.16150192
P 19.81
From 185 observations 2015 Nov. 13-2016 Feb. 2, mean residual 0".4.
|